This is the latest recevied weather packets stored in our database for station/object KY4EF. If no packets are shown the sender has not sent any weather packets the latest 10 day(s).
| Time | Temp. | Humidity | Pressure | Rain* | Wind** | Luminosity | Snow |
|---|---|---|---|---|---|---|---|
| 1777831081 | 20.56° C | 37% | 1017.6 hPa | 0 mm | - | 738 W/m² | - |
| 1777830780 | 19.44° C | 37% | 1017.2 hPa | 0 mm | - | 741 W/m² | - |
| 1777830475 | 18.89° C | 37% | 1017.4 hPa | 0 mm | - | 743 W/m² | - |
| 1777830173 | 19.44° C | 37% | 1017.2 hPa | 0 mm | - | 742 W/m² | - |
| 1777829868 | 18.89° C | 39% | 1017.4 hPa | 0 mm | - | 744 W/m² | - |
| 1777829564 | 18.89° C | 38% | 1017.6 hPa | 0 mm | - | 745 W/m² | - |
| 1777829261 | 17.22° C | 43% | 1017.7 hPa | 0 mm | - | 746 W/m² | - |
| 1777828958 | 18.89° C | 37% | 1017.7 hPa | 0 mm | - | 744 W/m² | - |
| 1777828655 | 18.33° C | 39% | 1017.8 hPa | 0 mm | - | 743 W/m² | - |
| 1777828352 | 18.89° C | 37% | 1018 hPa | 0 mm | - | 740 W/m² | - |
| 1777828049 | 20° C | 39% | 1017.9 hPa | 0 mm | - | 736 W/m² | - |
| 1777827746 | 18.89° C | 40% | 1018 hPa | 0 mm | - | 736 W/m² | - |
| 1777827443 | 18.89° C | 41% | 1018.1 hPa | 0 mm | - | 734 W/m² | - |
| 1777827140 | 18.33° C | 38% | 1018.1 hPa | 0 mm | - | 732 W/m² | - |
| 1777826836 | 17.22° C | 39% | 1018.2 hPa | 0 mm | - | 727 W/m² | - |
| 1777826534 | 18.89° C | 40% | 1018.5 hPa | 0 mm | - | 725 W/m² | - |
| 1777826230 | 18.33° C | 38% | 1018.4 hPa | 0 mm | - | 722 W/m² | - |
| 1777825928 | 16.67° C | 40% | 1018.4 hPa | 0 mm | - | 718 W/m² | - |
| 1777825624 | 18.33° C | 42% | 1018.5 hPa | 0 mm | - | 713 W/m² | - |
| 1777825323 | 17.78° C | 39% | 1018.8 hPa | 0 mm | - | 706 W/m² | - |
| 1777825019 | 15° C | 42% | 1018.5 hPa | 0 mm | - | 704 W/m² | - |
| 1777824715 | 16.67° C | 40% | 1018.6 hPa | 0 mm | - | 698 W/m² | - |
| 1777824412 | 17.22° C | 39% | 1018.6 hPa | 0 mm | - | 687 W/m² | - |
| 1777824107 | 17.22° C | 40% | 1018.9 hPa | 0 mm | - | 682 W/m² | - |
| 1777823804 | 16.67° C | 39% | 1019 hPa | 0 mm | - | 674 W/m² | - |
* Rain latest hour (hover to see other rain measurements)
** Current wind speed in m/s (hover to see current wind gust speed)